Simultaneous Nadir Overpasses (SNOs) Predictions

Prediction of SNOs between METOP-B and TERRA Satellite Orbit:

Table of predicted SNOs for the next 14.0 days since TLE Epoch: 3/8/2025
Index Date (METOP-B) Time (METOP-B) Lat,Lon (METOP-B) SZA (METOP-B ) Date (TERRA) Time (TERRA) Lat,Lon (TERRA) SZA (TERRA ) Distance(km) Time Diff (sec)
1 03/09/2025 21:00:20 -78.89, 52.67 96.99 03/09/2025 21:00:33 -78.90, 52.74 96.98 1.64 13
2 03/09/2025 21:50:52 79.20,-137.91 83.35 03/09/2025 21:49:45 79.21,-137.84 83.35 1.56 67
3 03/12/2025 10:40:00 79.03, 28.62 82.17 03/12/2025 10:40:01 79.02, 28.49 82.15 2.98 1
4 03/14/2025 23:29:15 78.54,-166.71 80.63 03/14/2025 23:30:22 78.55,-166.62 80.64 2.29 67
5 03/15/2025 00:19:43 -79.05, 3.77 98.83 03/15/2025 00:19:30 -79.05, 3.72 98.84 1.09 13
6 03/17/2025 13:08:57 -78.63, 168.86 100.29 03/17/2025 13:09:50 -78.64, 168.91 100.29 1.10 53
7 03/17/2025 13:59:28 78.99, -21.59 80.09 03/17/2025 13:59:01 78.99, -21.50 80.10 1.97 27
8 03/20/2025 02:48:39 78.68, 144.15 78.75 03/20/2025 02:49:18 78.68, 144.22 78.75 1.61 39



Historial Predications of SNOs between METOP-B and TERRA
